Portada
METAR-TAF:

METAR-TAF

Aeroports :

Yamagata, Japó

latitud: 38-25N, longitud: 140-22E, altitud: 105 m

Observació

L'informe es va fer fa 32 minuts, a les 06:00 UTC
Vent 6 kt del Nord
Temperatura 6°C
Humitat 70%
Pressió 1020 hPa
Visibilitat 10 km o més
Escasses núvols a una alçada de 3000 ft
Cel ennuvolat a una alçada de 10000 ft

METAR: RJSC 050600Z 36006KT 9999 FEW030 BKN100 06/01 Q1020

Hora: 15:32 (06:32 UTC)


TAF: manca

Observacions i pronòstics meteorològics de més de 4000 aeroports (METAR i TAF).

Les estacions disponibles són els punts grocs i vermells al mapa.

Posi el ratolí al punt desitjat per veure el nom de l'estació.

Feu clic per veure les observacions i els pronòstics meteorològics.

Per canviar el mapa: feu clic els botons verds amb una creu de color negre per apropar; al botó verd amb un guió per allunyar la imatge; o en les fletxes verdes per a mapes adjacents.


METAR-TAF: